Location: Poughquag
(41.6090°N, 73.6820°W)
Time: 04:33:20
(UTC-04:00)

TIGRISAT - Visible Passes

Search period start: 21 July 2024 00:00
Search period end: 31 July 2024 00:00
Orbit: 593 x 670 km, 97.7° (Epoch: 20 July)

Date Brightness Start Highest point End Pass type
(mag) Time Alt. Az. Time Alt. Az. Time Alt. Az.
21 Jul ? 03:27:20 10° E 03:29:59 15° ENE 03:32:38 10° NNE visible
21 Jul ? 05:01:22 10° S 05:05:53 57° W 05:10:23 10° NNW visible
22 Jul ? 03:47:03 10° ESE 03:50:43 24° ENE 03:54:21 10° NNE visible
23 Jul ? 04:07:16 10° SE 04:11:29 38° ENE 04:15:41 10° N visible
24 Jul ? 04:27:48 10° SSE 04:32:19 63° ENE 04:36:48 10° N visible
25 Jul ? 03:15:56 10° E 03:17:28 12° ENE 03:19:00 10° NE visible
25 Jul ? 04:48:38 10° S 04:53:13 78° WSW 04:57:44 10° NNW visible
26 Jul ? 03:35:01 10° ESE 03:38:07 18° ENE 03:41:12 10° NNE visible
26 Jul ? 05:09:46 10° S 05:14:08 46° W 05:18:29 10° NNW visible
27 Jul ? 03:54:57 10° SE 03:58:50 29° ENE 04:02:41 10° N visible
28 Jul ? 04:15:15 10° SE 04:19:36 46° ENE 04:23:53 10° N visible
29 Jul ? 04:35:52 10° SSE 04:40:24 78° ENE 04:44:53 10° N visible
30 Jul ? 03:23:08 10° E 03:25:25 14° ENE 03:27:40 10° NNE visible
30 Jul ? 04:56:47 10° S 05:01:16 62° W 05:05:41 10° NNW visible
